When you browse on this site, cookies collect data to enhance your experience and personalize the content and advertising you see.
Visit our Privacy Policy to learn more. By continuing to use the site, you agree to this use of cookies and data.
  • In Spain
  • List of Countries
  • For 7 days
  • Water Temperature
  • Satellite Maps
  • Weather Map
  • Weather Widgets
  • user-avatar
    Login

    Hourly Weather Karamyshevo

    Today, 10 December, Monday

    Time Temperature Precipitation Wind Pressure Humidity
    00:00 -1°C° 0.3 mm 5 mps 739 mmHg 94%
    01:00 -1°C° 0.3 mm 5 mps 738 mmHg 94%
    02:00 -1°C° 0.3 mm 5 mps 738 mmHg 95%
    03:00 -1°C° 0.2 mm 5 mps 738 mmHg 95%
    04:00 -1°C° 0.2 mm 4 mps 738 mmHg 95%
    05:00 -1°C° 0.2 mm 4 mps 738 mmHg 96%
    06:00 -1°C° 0.1 mm 4 mps 738 mmHg 96%
    07:00 -1°C° 0.1 mm 4 mps 739 mmHg 96%
    08:00 0°C° 0.1 mm 3 mps 739 mmHg 96%
    09:00 0°C° 0 mm 3 mps 739 mmHg 97%
    10:00 0°C° 0 mm 3 mps 739 mmHg 98%
    11:00 0°C° 0 mm 3 mps 739 mmHg 98%
    12:00 0°C° 0 mm 3 mps 739 mmHg 98%
    13:00 0°C° 0 mm 3 mps 740 mmHg 98%
    14:00 0°C° 0 mm 3 mps 740 mmHg 98%
    15:00 0°C° 0 mm 3 mps 740 mmHg 97%
    16:00 +1°C° 0 mm 2 mps 740 mmHg 97%
    17:00 -1°C° 0 mm 2 mps 741 mmHg 97%
    18:00 +1°C° 0.2 mm 2 mps 741 mmHg 97%
    19:00 0°C° 0.2 mm 3 mps 741 mmHg 96%
    20:00 0°C° 0.2 mm 3 mps 741 mmHg 96%
    21:00 0°C° 0.2 mm 3 mps 741 mmHg 96%
    22:00 0°C° 0.2 mm 3 mps 741 mmHg 95%
    23:00 0°C° 0.2 mm 3 mps 741 mmHg 95%

    Tomorrow, 11 December, Tuesday

    Time Temperature Precipitation Wind Pressure Humidity
    00:00 0°C° 0.3 mm 3 mps 741 mmHg 95%
    01:00 0°C° 0.3 mm 3 mps 741 mmHg 95%
    02:00 0°C° 0.3 mm 3 mps 741 mmHg 95%
    03:00 0°C° 0.4 mm 3 mps 741 mmHg 95%
    04:00 -1°C° 0.4 mm 3 mps 741 mmHg 95%
    05:00 -1°C° 0.4 mm 3 mps 741 mmHg 96%
    06:00 -1°C° 0.3 mm 2 mps 741 mmHg 96%
    07:00 -1°C° 0.3 mm 2 mps 741 mmHg 96%
    08:00 -1°C° 0.3 mm 2 mps 741 mmHg 97%
    09:00 -1°C° 0.1 mm 2 mps 742 mmHg 97%
    10:00 -1°C° 0.1 mm 2 mps 742 mmHg 98%
    11:00 +2°C° 0.1 mm 1 mps 742 mmHg 99%
    12:00 +1°C° 0 mm 1 mps 743 mmHg 98%
    13:00 +1°C° 0 mm 1 mps 743 mmHg 97%
    14:00 0°C° 0 mm 1 mps 743 mmHg 97%
    15:00 0°C° 0 mm 1 mps 743 mmHg 97%
    16:00 0°C° 0 mm 1 mps 744 mmHg 96%
    17:00 -2°C° 0 mm 0 mps 744 mmHg 96%
    18:00 -2°C° 0 mm 0 mps 744 mmHg 96%
    19:00 -1°C° 0 mm 0 mps 745 mmHg 95%
    20:00 0°C° 0 mm 1 mps 745 mmHg 95%
    21:00 0°C° 0 mm 1 mps 745 mmHg 95%
    22:00 0°C° 0 mm 1 mps 746 mmHg 95%
    23:00 0°C° 0 mm 1 mps 746 mmHg 94%

    Day after tomorrow, 12 December, Wednesday

    Time Temperature Precipitation Wind Pressure Humidity
    00:00 -1°C° 0 mm 2 mps 746 mmHg 94%
    01:00 -1°C° 0 mm 2 mps 746 mmHg 95%
    02:00 -1°C° 0 mm 2 mps 746 mmHg 95%
    03:00 -1°C° 0 mm 3 mps 746 mmHg 95%
    04:00 -1°C° 0 mm 3 mps 746 mmHg 94%
    05:00 -2°C° 0 mm 4 mps 746 mmHg 94%
    06:00 -2°C° 0 mm 4 mps 746 mmHg 94%
    07:00 -2°C° 0 mm 4 mps 746 mmHg 94%
    08:00 -2°C° 0 mm 5 mps 746 mmHg 94%
    09:00 -2°C° 0 mm 5 mps 746 mmHg 95%
    10:00 -1°C° 0 mm 5 mps 746 mmHg 95%
    11:00 -2°C° 0 mm 6 mps 746 mmHg 96%
    12:00 -2°C° 0.1 mm 6 mps 746 mmHg 95%
    13:00 -2°C° 0.1 mm 6 mps 746 mmHg 95%
    14:00 -2°C° 0.1 mm 6 mps 746 mmHg 95%
    15:00 -2°C° 0.2 mm 6 mps 746 mmHg 95%
    16:00 -3°C° 0.2 mm 6 mps 746 mmHg 94%
    17:00 -3°C° 0.2 mm 6 mps 746 mmHg 94%
    18:00 -3°C° 0.2 mm 6 mps 746 mmHg 94%
    19:00 -3°C° 0.2 mm 6 mps 746 mmHg 94%
    20:00 -3°C° 0.2 mm 6 mps 746 mmHg 94%
    21:00 -3°C° 0.3 mm 6 mps 746 mmHg 94%
    22:00 -3°C° 0.3 mm 6 mps 746 mmHg 94%
    23:00 -3°C° 0.3 mm 6 mps 746 mmHg 94%

    13 December, Thursday

    Time Temperature Precipitation Wind Pressure Humidity
    00:00 -2°C° 0.2 mm 5 mps 746 mmHg 94%
    01:00 -4°C° 0.2 mm 5 mps 746 mmHg 94%
    02:00 -4°C° 0.2 mm 5 mps 746 mmHg 94%
    03:00 -4°C° 0.2 mm 5 mps 746 mmHg 94%
    04:00 -4°C° 0.2 mm 5 mps 746 mmHg 94%
    05:00 -4°C° 0.2 mm 5 mps 746 mmHg 94%
    06:00 -4°C° 0.1 mm 5 mps 747 mmHg 94%
    07:00 -4°C° 0.1 mm 5 mps 747 mmHg 94%
    08:00 -3°C° 0.1 mm 4 mps 747 mmHg 94%
    09:00 -3°C° 0.1 mm 4 mps 747 mmHg 94%
    10:00 -3°C° 0.1 mm 4 mps 747 mmHg 94%
    11:00 -3°C° 0.1 mm 4 mps 748 mmHg 94%
    12:00 -3°C° 0 mm 4 mps 748 mmHg 94%
    13:00 -3°C° 0 mm 4 mps 748 mmHg 94%
    14:00 -3°C° 0 mm 4 mps 748 mmHg 94%
    15:00 -3°C° 0.1 mm 4 mps 748 mmHg 94%
    16:00 -3°C° 0.1 mm 4 mps 748 mmHg 94%
    17:00 -3°C° 0.1 mm 4 mps 748 mmHg 94%
    18:00 -4°C° 0.1 mm 4 mps 749 mmHg 95%
    19:00 -4°C° 0.1 mm 3 mps 749 mmHg 95%
    20:00 -4°C° 0.1 mm 3 mps 749 mmHg 95%
    21:00 -4°C° 0 mm 3 mps 749 mmHg 95%
    22:00 -4°C° 0 mm 3 mps 749 mmHg 95%
    23:00 -4°C° 0 mm 3 mps 750 mmHg 95%

    14 December, Friday

    Time Temperature Precipitation Wind Pressure Humidity
    00:00 -5°C° 0 mm 3 mps 750 mmHg 95%
    01:00 -5°C° 0 mm 3 mps 750 mmHg 95%
    02:00 -5°C° 0 mm 3 mps 750 mmHg 95%
    03:00 -5°C° 0 mm 3 mps 750 mmHg 95%
    04:00 -5°C° 0 mm 3 mps 750 mmHg 95%
    05:00 -5°C° 0 mm 3 mps 750 mmHg 95%
    06:00 -5°C° 0 mm 3 mps 750 mmHg 95%
    07:00 -5°C° 0 mm 3 mps 750 mmHg 95%
    08:00 -6°C° 0 mm 3 mps 751 mmHg 95%
    09:00 -5°C° 0 mm 3 mps 751 mmHg 95%
    10:00 -5°C° 0 mm 3 mps 751 mmHg 95%
    11:00 -5°C° 0 mm 3 mps 751 mmHg 94%
    12:00 -5°C° 0.1 mm 3 mps 751 mmHg 94%
    13:00 -5°C° 0.1 mm 3 mps 751 mmHg 94%
    14:00 -5°C° 0.1 mm 3 mps 751 mmHg 94%
    15:00 -5°C° 0.1 mm 3 mps 751 mmHg 95%
    16:00 -5°C° 0.1 mm 3 mps 751 mmHg 95%
    17:00 -5°C° 0.1 mm 3 mps 751 mmHg 96%
    18:00 -5°C° 0.2 mm 3 mps 751 mmHg 96%
    19:00 -5°C° 0.2 mm 3 mps 751 mmHg 96%
    20:00 -5°C° 0.2 mm 3 mps 751 mmHg 95%
    21:00 -5°C° 0.3 mm 3 mps 751 mmHg 95%
    22:00 -5°C° 0.3 mm 3 mps 751 mmHg 95%
    23:00 -6°C° 0.3 mm 3 mps 751 mmHg 95%

    15 December, Saturday

    Time Temperature Precipitation Wind Pressure Humidity
    00:00 -6°C° 0.2 mm 3 mps 751 mmHg 95%
    01:00 -6°C° 0.2 mm 3 mps 751 mmHg 95%
    02:00 -6°C° 0.2 mm 3 mps 751 mmHg 95%
    03:00 -6°C° 0.1 mm 3 mps 751 mmHg 95%
    04:00 -7°C° 0.1 mm 3 mps 751 mmHg 95%
    05:00 -7°C° 0.1 mm 3 mps 751 mmHg 95%
    06:00 -7°C° 0.1 mm 3 mps 751 mmHg 95%
    07:00 -7°C° 0.1 mm 3 mps 751 mmHg 95%
    08:00 -8°C° 0.1 mm 3 mps 752 mmHg 95%
    09:00 -7°C° 0.1 mm 3 mps 752 mmHg 95%
    10:00 -7°C° 0.1 mm 3 mps 752 mmHg 94%
    11:00 -8°C° 0.1 mm 4 mps 752 mmHg 94%
    12:00 -7°C° 0 mm 3 mps 752 mmHg 94%
    13:00 -7°C° 0 mm 3 mps 752 mmHg 94%
    14:00 -7°C° 0 mm 3 mps 753 mmHg 94%
    15:00 -8°C° 0 mm 3 mps 753 mmHg 94%
    16:00 -8°C° 0 mm 3 mps 753 mmHg 94%
    17:00 -8°C° 0 mm 3 mps 753 mmHg 95%
    18:00 -9°C° 0 mm 3 mps 754 mmHg 95%
    19:00 -9°C° 0 mm 3 mps 754 mmHg 95%
    20:00 -9°C° 0 mm 3 mps 754 mmHg 95%
    21:00 -10°C° 0 mm 4 mps 754 mmHg 94%
    22:00 -10°C° 0 mm 4 mps 754 mmHg 94%
    23:00 -10°C° 0 mm 4 mps 755 mmHg 94%
    Show more